TimeEST,TemperatureF,Dew PointF,Humidity,Sea Level PressureIn,VisibilityMPH,Wind Direction,Wind SpeedMPH,Gust SpeedMPH,PrecipitationIn,Events,Conditions,WindDirDegrees,DateUTC
12:00 AM,71,61,63,30.05,,SSE,10.4,,,,,160,2012-10-04 14:00:00
12:00 AM,71.6,60.8,69,30.04,6.2,SSE,10.4,-,N/A,,Partly Cloudy,160,2012-10-04 14:00:00
12:30 AM,71.6,59.0,64,30.04,6.2,SE,12.7,-,N/A,,Partly Cloudy,130,2012-10-04 14:30:00
1:00 AM,71,58,55,30.04,,SSE,9.2,,,,,160,2012-10-04 15:00:00
1:00 AM,71.6,59.0,64,30.04,6.2,SSE,9.2,-,N/A,,Partly Cloudy,160,2012-10-04 15:00:00
1:30 AM,71.6,57.2,60,30.01,6.2,SSE,10.4,-,N/A,,Scattered Clouds,160,2012-10-04 15:30:00
2:00 AM,69.8,57.2,64,30.01,6.2,South,9.2,-,N/A,,Partly Cloudy,170,2012-10-04 16:00:00
2:30 AM,69.8,59.0,68,29.98,6.2,South,9.2,-,N/A,,Partly Cloudy,170,2012-10-04 16:30:00
3:00 AM,69.8,59.0,68,29.98,5.0,South,10.4,-,N/A,Rain,Light Rain Showers,170,2012-10-04 17:00:00
3:30 AM,69.8,60.8,73,29.98,6.2,South,9.2,-,N/A,,Scattered Clouds,170,2012-10-04 17:30:00
4:00 AM,70,60,62,30.00,,South,11.5,,,,,180,2012-10-04 18:00:00
4:00 AM,69.8,60.8,73,29.98,6.2,South,11.5,-,N/A,,Partly Cloudy,180,2012-10-04 18:00:00
4:30 AM,69.8,60.8,73,29.98,6.2,South,11.5,-,N/A,,Scattered Clouds,170,2012-10-04 18:30:00
5:00 AM,69.8,60.8,73,29.98,6.2,South,11.5,-,N/A,,Partly Cloudy,180,2012-10-04 19:00:00
5:30 AM,69.8,59.0,68,30.01,6.2,South,13.8,-,N/A,,Partly Cloudy,190,2012-10-04 19:30:00
6:00 AM,70,60,63,30.02,19,South,12.7,,,,Partly Cloudy,180,2012-10-04 20:00:00
6:00 AM,69.8,60.8,73,30.01,6.2,South,12.7,-,N/A,,Partly Cloudy,180,2012-10-04 20:00:00
6:30 AM,71.6,60.8,69,30.01,6.2,South,11.5,-,N/A,,Scattered Clouds,170,2012-10-04 20:30:00
7:00 AM,70,62,69,30.04,,South,10.4,,,,,180,2012-10-04 21:00:00
7:00 AM,69.8,62.6,78,30.04,6.2,South,10.4,-,N/A,,Scattered Clouds,180,2012-10-04 21:00:00
7:30 AM,71.6,62.6,73,30.04,6.2,South,12.7,-,N/A,,Scattered Clouds,180,2012-10-04 21:30:00
8:00 AM,75.2,62.6,65,30.04,6.2,South,11.5,-,N/A,,Partly Cloudy,170,2012-10-04 22:00:00
8:30 AM,77.0,62.6,61,30.04,6.2,South,10.4,-,N/A,,Partly Cloudy,170,2012-10-04 22:30:00
8:55 AM,78.8,59.0,51,30.04,6.2,SSE,19.6,-,N/A,,Partly Cloudy,150,2012-10-04 22:55:00
9:00 AM,79,58,38,30.06,19,SSE,20.7,,,,Partly Cloudy,150,2012-10-04 23:00:00
9:00 AM,78.8,59.0,51,30.04,6.2,SSE,20.7,-,N/A,,Partly Cloudy,150,2012-10-04 23:00:00
9:30 AM,78.8,57.2,47,30.04,6.2,SE,21.9,-,N/A,,Partly Cloudy,140,2012-10-04 23:30:00
10:00 AM,82,56,31,30.07,,SE,20.7,,,,,130,2012-10-05 00:00:00
10:00 AM,82.4,57.2,42,30.06,6.2,SE,20.7,-,N/A,,Partly Cloudy,130,2012-10-05 00:00:00
10:30 AM,78.8,57.2,47,30.06,6.2,SE,19.6,-,N/A,,Scattered Clouds,140,2012-10-05 00:30:00
11:00 AM,82.4,59.0,45,30.04,6.2,SSE,18.4,-,N/A,,Scattered Clouds,150,2012-10-05 01:00:00
11:30 AM,82.4,55.4,39,30.04,6.2,SE,21.9,-,N/A,,Partly Cloudy,130,2012-10-05 01:30:00
12:00 PM,82,57,32,30.04,19,ESE,19.6,,,,Partly Cloudy,120,2012-10-05 02:00:00
12:00 PM,82.4,57.2,42,30.04,6.2,ESE,19.6,-,N/A,,Partly Cloudy,120,2012-10-05 02:00:00
12:30 PM,84.2,57.2,40,30.01,6.2,SE,20.7,-,N/A,,Partly Cloudy,130,2012-10-05 02:30:00
1:00 PM,82,47,19,30.01,,SSE,19.6,,,,,150,2012-10-05 03:00:00
1:00 PM,82.4,46.4,28,30.01,6.2,SSE,19.6,-,N/A,,Partly Cloudy,150,2012-10-05 03:00:00
1:30 PM,82.4,51.8,35,29.98,6.2,SE,18.4,-,N/A,,Partly Cloudy,140,2012-10-05 03:30:00
2:00 PM,82.4,55.4,39,29.98,6.2,SSE,18.4,-,N/A,,Partly Cloudy,160,2012-10-05 04:00:00
2:30 PM,82.4,57.2,42,29.98,6.2,SSE,21.9,-,N/A,,Partly Cloudy,150,2012-10-05 04:30:00
3:00 PM,82,56,31,29.99,19,SSE,23.0,,,,Partly Cloudy,150,2012-10-05 05:00:00
3:00 PM,82.4,57.2,42,29.98,6.2,SSE,23.0,-,N/A,,Partly Cloudy,150,2012-10-05 05:00:00
3:30 PM,80.6,51.8,37,29.98,6.2,SSE,23.0,-,N/A,,Partly Cloudy,150,2012-10-05 05:30:00
4:00 PM,80,60,39,29.99,,SSE,23.0,,,,,150,2012-10-05 06:00:00
4:00 PM,78.8,59.0,51,29.98,6.2,SSE,23.0,-,N/A,,Partly Cloudy,150,2012-10-05 06:00:00
4:30 PM,78.8,59.0,51,29.98,6.2,SE,21.9,-,N/A,,Partly Cloudy,140,2012-10-05 06:30:00
5:00 PM,78.8,60.8,54,29.98,6.2,SSE,21.9,-,N/A,,Scattered Clouds,150,2012-10-05 07:00:00
5:30 PM,77.0,62.6,61,29.98,6.2,SSE,19.6,-,N/A,,Scattered Clouds,150,2012-10-05 07:30:00
6:00 PM,76,62,52,30.00,,SSE,20.7,,,,,150,2012-10-05 08:00:00
6:00 PM,75.2,62.6,65,29.98,6.2,SSE,20.7,-,N/A,,Scattered Clouds,150,2012-10-05 08:00:00
6:30 PM,75.2,62.6,65,30.01,6.2,SE,15.0,-,N/A,,Scattered Clouds,140,2012-10-05 08:30:00
7:00 PM,74,63,60,30.03,,SSE,13.8,,,,,160,2012-10-05 09:00:00
7:00 PM,73.4,62.6,69,30.01,6.2,SSE,13.8,-,N/A,,Scattered Clouds,160,2012-10-05 09:00:00
7:30 PM,73.4,62.6,69,30.01,6.2,SSE,11.5,-,N/A,,Mostly Cloudy,160,2012-10-05 09:30:00
8:00 PM,73.4,62.6,69,30.04,6.2,SSE,15.0,-,N/A,,Mostly Cloudy,160,2012-10-05 10:00:00
8:30 PM,73.4,62.6,69,30.04,6.2,South,10.4,-,N/A,,Mostly Cloudy,170,2012-10-05 10:30:00
9:00 PM,73,63,64,30.05,,South,11.5,,,,Overcast,170,2012-10-05 11:00:00
9:00 PM,73.4,62.6,69,30.04,-9999.0,South,11.5,-,N/A,,Unknown,170,2012-10-05 11:00:00
9:30 PM,73.4,62.6,69,30.04,6.2,South,10.4,-,N/A,,Mostly Cloudy,170,2012-10-05 11:30:00
10:00 PM,73,64,67,30.06,,SSE,11.5,,,,,150,2012-10-05 12:00:00
10:00 PM,73.4,64.4,73,30.04,5.6,SSE,11.5,-,N/A,Rain,Light Rain Showers,150,2012-10-05 12:00:00
10:30 PM,71.6,64.4,78,30.04,6.2,South,9.2,-,N/A,,Overcast,170,2012-10-05 12:30:00
11:00 PM,71.6,64.4,78,30.04,6.2,South,9.2,-,N/A,,Overcast,170,2012-10-05 13:00:00
11:30 PM,71.6,64.4,78,30.04,5.6,South,12.7,-,N/A,,Overcast,190,2012-10-05 13:30:00